Preview of NWS' New Version of Forecast
This preview is not operational and should not be used for support decisions.

Regional Weather Roundup (RWR)

Issued by National Weather Service (NWS)

                            
000
ASUS43 KTOP 251208
RWRKS 

WEATHER ROUNDUP FOR KANSAS
NATIONAL WEATHER SERVICE GOODLAND KS
700 AM CDT SUN AUG 25 2019

NOTE:  "FAIR" INDICATES FEW OR NO CLOUDS BELOW 12,000 FEET WITH NO
SIGNIFICANT WEATHER AND/OR OBSTRUCTIONS TO VISIBILITY.

KSZ001>006-013>018-027>032-041>047-251300-
NORTHWEST KANSAS
  
CITY           SKY/WX    TMP DP  RH WIND       PRES   REMARKS
GOODLAND       FOG       62  62 100 S8        29.88S VSB 1/4          
6HR MIN TEMP:  60; 6HR MAX TEMP:  63;                                

HAYS           CLOUDY    63  62  97 SE5       29.66S                  
HILL CITY      CLOUDY    61  61 100 E8        29.90R                  
6HR MIN TEMP:  60; 6HR MAX TEMP:  62; 6HR PCP:  0.07;                

RUSSELL        MOCLDY    64  62  93 CALM      29.87S                  
6HR MIN TEMP:  60; 6HR MAX TEMP:  64; 6HR PCP:  0.40;                

$$

KSZ061>065-074>080-084>089-251300-
SOUTHWEST KANSAS
  
CITY           SKY/WX    TMP DP  RH WIND       PRES   REMARKS
DODGE CITY     MOCLDY    64  63  96 E9        29.89S                  
6HR MIN TEMP:  64; 6HR MAX TEMP:  72;                                

ELKHART        FAIR      68  67  96 S8        29.88S                  
GARDEN CITY    FOG       62  62 100 E12       29.88R VSB 1/4          
6HR MIN TEMP:  62; 6HR MAX TEMP:  69;                                

GREAT BEND     CLOUDY    63  62  97 S5        29.88S                  
LIBERAL        FAIR      69  67  93 S7        29.86R                  
PRATT          RAIN     N/A N/A N/A E6        29.90R                  
                                      6HR PCP:  1.09;                

$$

KSZ066>073-081>083-090>101-251300-
SOUTHEAST KANSAS
  
CITY           SKY/WX    TMP DP  RH WIND       PRES   REMARKS
CHANUTE        HVY RAIN  67  64  90 SE7       29.93S FOG              
6HR MIN TEMP:  66; 6HR MAX TEMP:  73; 6HR PCP:  0.75;                

COFFEYVILLE    TSTM      67  65  93 W10G25    29.93R FOG              
6HR MIN TEMP:  67; 6HR MAX TEMP:  73; 6HR PCP:  0.07;                

HUTCHINSON     LGT RAIN  64  62  93 SW6       29.88R                  
6HR MIN TEMP:  62; 6HR MAX TEMP:  72; 6HR PCP:  1.43;                

MEDICINE LODGE   N/A     63  62  97 E18G28    29.88R                  
NEWTON         LGT RAIN  62  62 100 S10       29.89S                  
PARSONS        TSTM      66  66 100 NE5       29.93  FOG              
6HR MIN TEMP:  66; 6HR MAX TEMP:  73; 6HR PCP:  0.67;                

WICHITA INTL   TSTM      64  62  93 S10       29.89F                  
6HR MIN TEMP:  64; 6HR MAX TEMP:  74; 6HR PCP:  1.94;                

WICHITA JABRA  RAIN      63  63 100 S8        29.89F                  
6HR MIN TEMP:  63; 6HR MAX TEMP:  71; 6HR PCP:  1.40;                

WICHITA MCCONL LGT RAIN  63  62  94 SE9       29.89F                  
WINFIELD       LGT RAIN  64  63  96 E7        29.91F                  
6HR MIN TEMP:  63; 6HR MAX TEMP:  73; 6HR PCP:  0.96;                

$$

KSZ007>012-019>026-033>040-048>060-102>105-251300-
NORTHEAST KANSAS
  
CITY           SKY/WX    TMP DP  RH WIND       PRES   REMARKS
CONCORDIA      MOCLDY    66  64  93 CALM      29.87R                  
6HR MIN TEMP:  66; 6HR MAX TEMP:  69; 6HR PCP:  0.03;                

EMPORIA        LGT RAIN  65  65 100 S7        29.89R                  
6HR MIN TEMP:  64; 6HR MAX TEMP:  68; 6HR PCP:  0.82;                

LAWRENCE       TSTM      69  65  86 S3        29.91R FOG              
6HR MIN TEMP:  69; 6HR MAX TEMP:  71; 6HR PCP:  0.01;                

MANHATTAN      CLOUDY    67  66  97 CALM      29.87R                  
6HR MIN TEMP:  67; 6HR MAX TEMP:  68; 6HR PCP:  1.13;                

MARYSVILLE     RAIN     N/A N/A N/A E8        29.89F                  
OLATHE IND     CLOUDY    67  64  90 SE13      29.91S                  
6HR MIN TEMP:  67; 6HR MAX TEMP:  69;                                

OLATHE EXE     CLOUDY    66  64  93 SE9       29.91R                  
6HR MIN TEMP:  66; 6HR MAX TEMP:  68;                                

SALINA         CLOUDY    64  62  93 SE8       29.87R                  
6HR MIN TEMP:  63; 6HR MAX TEMP:  68; 6HR PCP:  1.29;                

TOPEKA BILLARD RAIN      67  65  93 E13       29.85F                  
6HR MIN TEMP:  67; 6HR MAX TEMP:  69; 6HR PCP:  0.47;                

TOPEKA FORBES  LGT RAIN  68  65  90 E13       29.86F                  
6HR MIN TEMP:  68; 6HR MAX TEMP:  69; 6HR PCP:  0.82;                

$$